Weather History for KLVM - July, 2013

Change the Weather History Date:

Monday, July 1, 2013

  Actual Average Record
Temperature  
Mean Temperature 74 °F 64 °F  
Max Temperature 91 °F 80 °F 96 °F (1990)
Min Temperature 57 °F 47 °F 38 °F (1949)
Degree Days  
Heating Degree Days 0 3  
Month to date heating degree days 3  
Since 1 June heating degree days 210  
Since 1 July heating degree days 3  
Cooling Degree Days 9 2  
Month to date cooling degree days 9 2  
Year to date cooling degree days 59 22  
Since 1 June cooling degree days 51 21  
Growing Degree Days 23 (Base 50)    
Moisture  
Dew Point 55 °F    
Average Humidity 57    
Maximum Humidity 87    
Minimum Humidity 27    
Precipitation  
Precipitation 0.00 in 0.06 in 0.78 in (1965)
Month to date precipitation 0.00 0.06  
Year to date precipitation 5.82 8.71  
Sea Level Pressure  
Sea Level Pressure 30.10 in    
Wind  
Wind Speed 8 mph (East)    
Max Wind Speed 18 mph    
Max Gust Speed 23 mph    
Visibility 10 miles    
Events      
T = Trace of Precipitation, MM = Missing Value Source: NWS Daily Summary

Daily Weather History Graph

Daily Weather History Graph

Search for Another Location

Airport or City:

Trip Planner

Search our weather history database for the weather conditions in past years. The results will help you decide how hot, cold, wet, or windy it might be!

Date:

Astronomy

Jul. 01, 2013 Rise Set
Actual Time 5:36 AM MDT 9:14 PM MDT
Civil Twilight 4:58 AM MDT 9:52 PM MDT
Nautical Twilight 4:07 AM MDT 10:43 PM MDT
Astronomical Twilight 2:59 AM MDT 11:51 PM MDT
Moon 1:20 AM MDT (7/1) 3:23 PM MDT (7/1)
Length of Visible Light 16h 54m
Length of Day
15h 38m
Waning Crescent, 35% of the Moon is Illuminated
Jul 1
Waning Crescent
Jul 8
New
Jul 15
First Quarter
Jul 22
Full
Jul 29
Last Quarter

Hourly Weather History & Observations

Time (MDT) Temp. Heat Index Dew Point Humidity Pressure Visibility Wind Dir Wind Speed Gust Speed Precip Events Conditions
12:53 AM 70.0 °F - 57.0 °F 63% 30.07 in 10.0 mi ESE 8.1 mph - N/A   Clear
1:53 AM 63.0 °F - 55.9 °F 78% 30.09 in 10.0 mi Calm Calm - N/A   Clear
2:53 AM 60.1 °F - 55.0 °F 83% 30.10 in 10.0 mi Calm Calm - N/A   Clear
3:53 AM 60.1 °F - 55.0 °F 83% 30.11 in 10.0 mi Calm Calm - N/A   Clear
4:53 AM 59.0 °F - 55.0 °F 87% 30.13 in 10.0 mi NW 3.5 mph - N/A   Clear
5:53 AM 57.0 °F - 53.1 °F 87% 30.14 in 10.0 mi Calm Calm - N/A   Clear
6:53 AM 62.1 °F - 55.0 °F 78% 30.14 in 10.0 mi Calm Calm - N/A   Clear
7:53 AM 66.0 °F - 57.0 °F 73% 30.14 in 10.0 mi Calm Calm - N/A   Clear
8:53 AM 70.0 °F - 57.9 °F 65% 30.15 in 10.0 mi Calm Calm - N/A   Clear
9:53 AM 75.9 °F - 57.9 °F 54% 30.14 in 10.0 mi Calm Calm - N/A   Clear
10:53 AM 80.1 °F 80.4 °F 57.0 °F 45% 30.13 in 10.0 mi ENE 9.2 mph - N/A   Clear
11:53 AM 84.0 °F 83.0 °F 55.9 °F 38% 30.11 in 10.0 mi East 13.8 mph - N/A   Clear
12:53 PM 86.0 °F 84.7 °F 55.9 °F 36% 30.10 in 10.0 mi East 16.1 mph - N/A   Clear
1:53 PM 88.0 °F 85.9 °F 54.0 °F 31% 30.09 in 10.0 mi ENE 13.8 mph 19.6 mph N/A   Clear
2:53 PM 89.1 °F - 51.1 °F 27% 30.09 in 10.0 mi East 10.4 mph 16.1 mph N/A   Clear
3:53 PM 88.0 °F - 52.0 °F 29% 30.09 in 10.0 mi East 11.5 mph - N/A   Clear
4:53 PM 89.1 °F 86.9 °F 54.0 °F 30% 30.08 in 10.0 mi ENE 13.8 mph - N/A   Clear
5:53 PM 88.0 °F 85.7 °F 53.1 °F 30% 30.07 in 10.0 mi ENE 15.0 mph 23.0 mph N/A   Clear
6:53 PM 88.0 °F 85.7 °F 53.1 °F 30% 30.05 in 10.0 mi ENE 13.8 mph - N/A   Clear
7:53 PM 84.0 °F 82.5 °F 53.1 °F 34% 30.06 in 10.0 mi East 13.8 mph - N/A   Clear
8:53 PM 79.0 °F - 53.1 °F 40% 30.06 in 10.0 mi ENE 12.7 mph - N/A   Clear
9:53 PM 75.0 °F - 55.0 °F 50% 30.07 in 10.0 mi East 11.5 mph - N/A   Clear
10:53 PM 73.9 °F - 54.0 °F 50% 30.08 in 10.0 mi East 13.8 mph - N/A   Clear
11:53 PM 70.0 °F - 53.1 °F 55% 30.07 in 10.0 mi ESE 11.5 mph - N/A   Clear